Wind_Speed
6 7 11 14 15 18 21 23 26 31 34 37 42 43 39 37 34 27 24 19 17 17 17 15 17 16 18 23 28 32 36 41 47 48 45 44 42 43 38 36 37 34 30 30 31
7 10 14 16 19 21 23 25 29 31 34 39 44 45 46 42 38 26 23 22 19 18 17 17 18 18 18 21 25 31 33 35 43 49 48 46 44 43 43 36 38 34 34 31 31
11 14 17 19 22 23 26 27 29 32 36 39 46 51 47 40 35 24 24 24 24 22 22 21 22 23 24 24 29 31 35 34 38 45 48 47 44 42 39 39 36 34 33 34 32
14 18 20 22 25 27 28 29 29 32 35 39 48 53 46 39 36 24 24 25 25 24 24 24 25 25 26 31 33 33 37 38 42 46 49 49 46 42 37 38 37 34 35 35 38
19 21 23 26 28 29 30 31 31 34 38 44 53 52 47 40 33 28 26 25 24 24 25 27 28 28 30 32 36 39 40 39 43 48 52 54 48 39 38 40 37 37 39 42 43
22 24 27 30 31 31 31 32 35 38 43 46 53 53 47 41 32 26 24 23 24 25 26 27 30 31 33 36 41 42 41 40 42 50 57 60 50 39 41 41 40 42 46 53 55
27 28 30 32 33 33 33 34 37 40 45 49 54 52 46 43 38 33 30 28 27 27 27 29 32 36 38 41 44 44 44 45 47 53 56 60 49 45 48 52 50 46 52 57 59
30 31 32 34 35 35 35 36 39 43 46 52 54 51 48 43 37 34 33 31 31 30 31 33 36 38 41 43 44 46 49 51 50 57 56 59 57 47 50 56 54 53 57 58 59
33 33 34 36 37 37 37 37 38 43 49 54 54 49 42 39 36 32 32 32 34 35 35 37 39 40 42 44 47 49 53 54 57 60 56 60 63 53 49 55 58 60 62 64 66
34 35 36 38 40 40 39 37 41 45 51 56 51 46 40 41 34 33 32 32 33 35 35 37 41 44 46 48 50 52 55 57 59 59 62 62 64 53 52 56 61 66 69 67 66
37 38 39 41 43 43 40 42 45 47 53 57 50 40 42 38 37 38 38 40 39 40 41 42 45 48 51 51 54 55 58 59 60 63 65 66 67 57 62 65 67 72 72 70 75
39 40 42 43 44 45 46 48 54 58 60 64 53 50 42 41 42 42 42 43 42 41 42 42 46 49 51 54 56 57 61 61 63 65 70 68 67 65 70 72 71 70 73 77 78
41 43 45 45 44 45 46 51 55 59 61 58 53 47 48 46 48 47 46 46 45 44 45 46 49 51 53 56 59 59 62 65 67 67 69 77 76 72 74 71 72 75 80 83 82
43 45 46 46 47 47 48 52 55 58 58 58 50 49 49 51 53 53 52 53 51 49 50 51 55 58 58 60 59 59 65 67 65 71 75 74 85 77 76 78 80 84 85 86 88
44 46 47 48 49 49 49 50 51 53 54 54 54 51 52 54 57 60 56 56 54 51 52 52 55 57 58 58 60 62 65 65 68 71 77 77 86 84 81 80 86 87 87 91 93
47 49 49 50 50 49 50 53 55 57 62 60 57 57 57 60 62 63 60 55 56 53 52 53 57 59 60 60 64 65 66 68 70 73 80 81 85 84 83 89 90 90 88 90 93
49 50 50 52 51 51 51 53 57 57 60 62 63 62 63 65 67 64 59 56 56 54 55 58 58 59 61 62 65 67 69 74 76 77 79 81 83 83 89 91 90 91 91 92 91
51 51 52 53 53 53 55 55 57 59 63 64 65 64 67 67 69 64 60 58 55 56 57 59 61 64 62 63 69 70 72 73 79 81 84 77 81 85 86 87 87 91 93 92 89
53 54 54 54 55 57 60 59 58 62 66 66 66 69 70 72 71 64 62 59 58 58 57 59 62 63 61 65 70 72 73 73 77 81 83 84 83 81 81 84 88 91 93 90 79
58 57 55 56 58 60 62 61 61 64 67 68 71 72 73 73 70 65 64 61 62 61 60 61 62 61 65 69 74 73 70 72 79 79 82 80 83 81 82 85 86 87 88 81 68
61 61 59 60 61 64 65 64 65 67 67 68 70 74 73 71 70 68 66 64 63 60 60 62 65 66 67 72 71 71 72 74 76 78 80 81 80 73 82 86 89 87 84 74 62
66 67 66 65 67 69 65 66 68 70 69 68 75 76 73 75 70 68 66 69 66 64 63 64 66 66 68 72 72 74 72 71 76 75 73 74 82 77 80 84 86 88 80 62 60
69 71 70 67 71 68 68 70 72 73 72 74 80 79 77 69 63 69 71 71 67 62 65 66 67 68 70 72 72 74 71 67 73 73 70 76 79 75 79 81 84 85 72 60 60
71 74 74 71 70 70 69 73 75 77 77 78 78 77 72 66 69 72 73 68 61 62 64 65 67 67 68 65 72 72 65 66 69 68 69 67 78 76 79 83 84 78 69 65 57
73 74 75 76 78 78 78 81 83 83 81 83 82 76 76 77 78 77 70 65 63 63 65 68 67 65 65 66 70 69 64 63 61 65 69 68 74 77 82 84 81 75 71 70 58
77 75 76 77 78 78 80 82 84 85 84 79 82 80 83 85 81 75 69 65 65 65 66 67 66 64 65 64 69 66 65 60 63 63 63 67 69 75 79 79 77 74 71 66 57
76 77 78 83 86 86 89 88 91 87 88 80 80 86 90 82 77 69 67 66 66 67 67 67 67 65 64 63 66 66 60 60 61 61 62 67 70 77 80 79 73 78 76 63 62
Wind_Direction
310 323 312 316 320 323 323 328 331 334 337 342 342 343 342 340 334 326 329 327 311 306 306 309 324 323 318 319 328 333 339 343 338 339 334 330 328 328 328 327 326 329 320 320 317
312 306 306 311 314 319 319 324 331 334 339 342 344 340 334 336 335 323 327 321 317 304 300 302 312 323 322 322 327 329 333 339 334 333 332 331 329 330 330 325 324 326 317 313 308
302 304 305 308 312 315 319 324 331 335 335 336 340 337 333 335 335 318 319 317 314 308 302 295 305 319 323 328 329 330 330 333 330 331 330 332 334 338 334 328 327 324 315 309 307
299 299 303 307 310 313 320 323 328 329 332 334 336 336 335 336 335 317 311 312 304 301 297 296 301 314 326 331 328 326 325 328 328 326 329 331 333 341 333 332 331 324 316 311 304
297 297 301 305 308 312 317 322 323 327 330 333 336 336 334 335 334 324 313 308 302 298 293 295 300 307 315 319 318 319 322 324 324 326 328 329 334 339 328 329 326 321 318 312 307
294 297 300 304 307 310 316 318 322 326 330 333 335 334 331 330 331 327 319 313 306 301 297 298 303 305 310 312 313 317 323 325 327 327 325 327 336 333 330 329 324 320 314 309 310
293 295 299 303 305 310 313 316 320 322 327 330 331 332 331 330 330 325 321 320 313 308 305 304 304 305 306 308 310 317 321 325 327 323 322 321 330 330 327 321 317 314 310 308 313
291 294 299 302 305 308 311 316 318 320 324 327 328 331 329 327 326 321 319 315 313 313 310 307 306 306 305 307 313 319 319 319 323 320 318 318 323 326 323 317 313 312 308 311 311
292 294 298 300 305 307 310 313 318 321 326 329 325 324 325 327 325 324 318 312 309 308 307 303 301 301 306 313 315 317 317 317 316 312 310 318 321 328 322 316 312 310 311 310 312
289 292 297 300 303 306 307 308 312 320 330 327 322 322 323 327 326 321 311 309 308 306 307 307 308 309 311 312 312 314 313 316 314 312 313 319 323 327 318 314 314 312 312 312 312
286 292 297 299 303 304 306 305 307 314 322 322 322 321 324 325 321 321 317 315 312 310 312 312 310 308 309 312 314 316 316 318 315 316 317 320 322 323 318 317 315 310 311 312 313
287 292 295 298 302 306 307 306 309 314 319 322 319 320 324 324 324 323 318 312 311 314 314 314 311 311 314 313 314 317 317 315 314 317 317 317 319 322 320 317 314 314 314 313 313
288 291 295 298 302 305 305 307 312 315 319 324 319 319 324 326 325 320 318 312 309 305 307 310 310 312 313 314 316 318 316 315 317 315 317 316 315 320 318 318 316 318 315 314 312
286 290 294 299 301 304 304 309 313 312 316 321 323 322 322 323 325 324 318 319 312 311 310 312 312 313 315 315 317 318 316 317 318 319 319 321 317 321 323 319 319 316 316 313 307
284 288 292 295 299 300 303 308 313 316 318 317 320 319 319 322 323 321 316 316 316 316 314 315 316 316 315 315 316 315 314 318 319 318 318 319 318 322 322 319 318 318 317 312 311
281 284 288 292 294 295 300 302 308 311 315 314 315 315 316 321 320 320 317 315 317 315 316 317 316 317 316 315 314 314 316 318 317 318 317 319 321 324 320 321 321 320 316 313 312
280 283 286 288 289 290 295 299 303 310 312 310 312 312 314 318 319 317 315 311 313 314 315 313 314 315 315 315 316 316 318 318 316 317 318 320 319 320 322 321 321 316 315 315 314
277 281 283 286 287 286 289 292 298 307 312 311 310 310 314 318 317 316 313 311 311 311 311 310 312 313 316 315 315 316 318 318 318 316 316 321 320 321 323 322 315 318 318 317 318
276 278 280 282 284 285 287 290 296 302 307 312 311 309 312 316 316 313 310 310 310 311 310 310 310 312 314 313 313 315 316 316 315 314 315 323 322 324 322 316 319 321 319 320 323
274 277 279 280 282 285 285 291 295 298 303 307 309 308 310 312 313 310 309 307 305 307 307 308 309 311 311 311 311 312 314 316 316 314 314 321 320 326 319 321 323 322 319 322 325
276 277 279 281 281 284 286 291 294 296 298 304 306 306 307 310 309 307 303 305 304 304 303 305 308 310 310 309 310 310 312 315 313 313 315 319 325 324 321 323 323 322 324 329 323
276 276 278 279 282 284 287 289 292 294 298 301 304 305 305 307 304 301 299 300 302 300 301 304 305 307 307 308 308 310 314 313 312 313 316 316 325 324 325 325 323 323 325 328 322
275 277 277 279 282 286 288 290 291 294 296 299 301 303 306 304 297 296 298 299 298 297 299 302 304 306 308 309 310 311 312 313 310 313 319 318 321 324 323 326 325 322 324 325 322
273 274 276 278 282 287 287 285 287 292 293 295 298 301 304 299 299 300 300 297 297 296 298 300 302 305 306 307 308 308 311 311 311 312 315 321 318 326 327 327 324 324 323 322 322
271 274 276 280 283 284 283 287 290 294 293 294 297 297 299 297 297 295 296 294 295 295 296 297 300 303 305 307 303 305 309 311 310 311 315 319 323 324 327 326 325 325 321 322 323
273 276 278 279 279 281 283 284 287 293 292 292 296 297 296 299 293 291 290 292 293 292 294 298 299 299 304 305 303 306 309 311 311 312 317 318 324 320 325 326 325 323 322 324 319
273 275 278 276 277 279 282 285 289 291 293 295 293 296 296 293 289 288 288 289 289 294 297 299 296 296 304 306 305 306 311 309 312 314 317 321 323 323 325 330 329 323 322 330 326
Height
5906 5907 5907 5906 5905 5904 5902 5901 5899 5897 5895 5891 5888 5884 5880 5876 5873 5869 5866 5865 5864 5863 5862 5859 5857 5855 5854 5852 5850 5847 5846 5839 5831 5829 5828 5825 5823 5820 5816 5811 5808 5804 5799 5796 5792
5905 5906 5905 5904 5903 5902 5900 5898 5897 5895 5892 5888 5884 5880 5876 5872 5868 5865 5863 5862 5861 5859 5857 5856 5854 5852 5850 5849 5847 5844 5842 5839 5829 5821 5819 5818 5816 5814 5810 5806 5801 5798 5791 5787 5784
5904 5904 5903 5901 5900 5900 5898 5896 5895 5892 5889 5885 5881 5876 5870 5867 5862 5859 5858 5858 5857 5855 5853 5852 5850 5848 5846 5845 5843 5840 5838 5835 5829 5819 5812 5810 5810 5809 5803 5800 5794 5791 5784 5777 5773
5902 5902 5901 5899 5898 5896 5895 5893 5891 5889 5886 5882 5877 5872 5865 5862 5858 5854 5853 5853 5852 5851 5849 5847 5846 5844 5843 5842 5839 5837 5833 5830 5825 5814 5807 5803 5803 5803 5795 5791 5787 5782 5775 5769 5763
5900 5899 5898 5897 5895 5893 5892 5889 5887 5885 5882 5877 5873 5866 5862 5858 5856 5852 5849 5847 5847 5845 5844 5843 5841 5840 5837 5834 5832 5830 5827 5824 5818 5810 5802 5796 5797 5794 5788 5784 5779 5772 5765 5758 5753
5896 5895 5894 5893 5892 5890 5888 5886 5883 5880 5877 5873 5868 5862 5859 5855 5852 5848 5846 5843 5841 5840 5838 5837 5835 5833 5830 5828 5825 5822 5819 5815 5810 5804 5797 5792 5793 5787 5782 5776 5770 5764 5756 5745 5741
5892 5891 5890 5889 5888 5886 5884 5882 5878 5875 5872 5868 5864 5859 5853 5850 5846 5844 5841 5839 5836 5834 5832 5830 5827 5825 5823 5821 5818 5815 5812 5806 5803 5799 5793 5785 5790 5782 5775 5768 5760 5754 5744 5736 5735
5887 5887 5886 5884 5883 5881 5879 5877 5874 5871 5867 5863 5859 5854 5850 5846 5842 5839 5837 5834 5831 5829 5827 5824 5821 5818 5816 5814 5810 5806 5803 5797 5795 5791 5785 5781 5781 5777 5767 5757 5748 5742 5733 5728 5721
5882 5882 5881 5879 5878 5876 5874 5871 5869 5866 5861 5857 5853 5850 5846 5841 5837 5833 5831 5828 5825 5822 5820 5817 5814 5811 5807 5803 5801 5798 5795 5790 5787 5782 5777 5774 5770 5768 5755 5747 5736 5728 5723 5715 5710
5877 5876 5876 5874 5872 5870 5868 5865 5863 5861 5857 5852 5849 5845 5841 5837 5832 5829 5826 5823 5819 5815 5813 5809 5804 5800 5797 5794 5790 5788 5785 5779 5772 5770 5766 5765 5760 5758 5742 5736 5724 5713 5705 5701 5696
5871 5870 5869 5869 5867 5864 5863 5859 5858 5858 5854 5847 5844 5839 5835 5831 5827 5822 5818 5815 5813 5808 5803 5800 5796 5791 5787 5783 5778 5775 5771 5767 5756 5753 5751 5751 5749 5744 5731 5722 5711 5702 5693 5687 5682
5864 5864 5863 5861 5859 5856 5854 5850 5847 5843 5840 5835 5832 5829 5826 5823 5818 5814 5812 5807 5804 5799 5794 5791 5784 5779 5775 5771 5766 5761 5756 5754 5751 5743 5732 5733 5734 5729 5713 5704 5695 5688 5680 5672 5662
5858 5857 5856 5854 5851 5848 5845 5842 5838 5835 5833 5829 5824 5819 5816 5813 5810 5807 5804 5798 5794 5790 5784 5780 5773 5768 5762 5756 5753 5748 5742 5737 5735 5736 5721 5701 5714 5711 5694 5685 5676 5668 5655 5644 5639
5851 5849 5848 5846 5845 5841 5838 5835 5831 5828 5826 5822 5816 5812 5808 5805 5801 5796 5792 5788 5781 5777 5771 5768 5760 5753 5746 5742 5739 5735 5727 5723 5719 5709 5707 5697 5675 5691 5679 5661 5651 5641 5632 5621 5612
5842 5841 5840 5837 5836 5833 5831 5826 5824 5821 5817 5815 5808 5805 5800 5798 5793 5786 5781 5775 5770 5767 5760 5755 5749 5742 5736 5732 5727 5723 5715 5710 5703 5695 5685 5686 5664 5659 5650 5645 5634 5618 5606 5589 5573
5833 5832 5831 5829 5827 5824 5821 5818 5816 5815 5810 5806 5801 5796 5792 5789 5784 5777 5771 5766 5761 5756 5750 5745 5739 5733 5724 5718 5711 5705 5701 5697 5690 5685 5674 5662 5645 5645 5628 5618 5604 5592 5581 5564 5552
5823 5822 5821 5819 5818 5815 5812 5809 5808 5807 5802 5796 5791 5787 5783 5780 5773 5768 5762 5756 5752 5746 5741 5734 5728 5722 5713 5704 5696 5687 5684 5678 5674 5670 5664 5650 5637 5623 5609 5596 5581 5568 5560 5549 5536
5812 5811 5810 5809 5807 5805 5801 5799 5798 5797 5791 5786 5781 5777 5772 5769 5761 5756 5750 5744 5742 5736 5730 5724 5716 5708 5702 5693 5681 5675 5672 5665 5650 5643 5641 5652 5627 5615 5602 5583 5567 5553 5538 5526 5512
5800 5799 5800 5797 5796 5793 5791 5788 5789 5786 5782 5776 5771 5764 5761 5757 5750 5744 5738 5733 5729 5724 5719 5711 5707 5697 5690 5683 5674 5662 5658 5647 5637 5630 5620 5620 5613 5609 5589 5570 5553 5536 5518 5502 5490
5787 5787 5788 5786 5784 5781 5778 5780 5778 5773 5770 5766 5761 5755 5750 5745 5739 5732 5726 5724 5717 5713 5707 5701 5695 5690 5679 5670 5660 5655 5647 5635 5620 5606 5599 5611 5593 5580 5564 5548 5536 5519 5500 5487 5472
5776 5774 5776 5775 5771 5767 5767 5768 5765 5762 5760 5757 5750 5743 5739 5734 5729 5722 5717 5711 5704 5697 5692 5685 5683 5678 5668 5658 5651 5642 5636 5625 5609 5594 5580 5575 5588 5567 5544 5526 5506 5494 5480 5468 5455
5760 5760 5760 5760 5759 5755 5757 5756 5753 5748 5746 5743 5738 5732 5727 5721 5712 5707 5703 5696 5691 5685 5677 5673 5666 5664 5657 5647 5642 5631 5624 5611 5597 5590 5578 5561 5558 5552 5534 5515 5494 5478 5468 5459 5447
5743 5745 5743 5745 5741 5744 5744 5742 5736 5735 5732 5728 5723 5718 5713 5706 5698 5692 5688 5684 5678 5671 5663 5659 5653 5650 5643 5634 5626 5619 5610 5598 5583 5570 5571 5546 5536 5531 5519 5505 5486 5465 5457 5447 5437
5729 5726 5726 5728 5729 5730 5728 5723 5720 5720 5717 5712 5708 5703 5699 5692 5686 5677 5673 5668 5664 5657 5650 5644 5640 5637 5631 5624 5609 5604 5600 5585 5567 5558 5553 5548 5520 5519 5506 5488 5468 5454 5442 5434 5428
5710 5711 5711 5709 5712 5712 5709 5707 5705 5705 5701 5696 5691 5689 5683 5676 5672 5663 5658 5654 5649 5644 5637 5629 5626 5622 5615 5610 5594 5589 5588 5579 5565 5549 5533 5529 5516 5499 5489 5469 5456 5439 5428 5417 5412
5693 5697 5696 5696 5695 5692 5690 5689 5688 5687 5684 5679 5674 5671 5665 5660 5655 5647 5641 5638 5632 5627 5621 5616 5609 5606 5603 5595 5580 5575 5570 5564 5554 5539 5532 5516 5507 5489 5482 5466 5448 5430 5418 5409 5398
5682 5678 5676 5677 5676 5674 5673 5673 5670 5669 5665 5661 5657 5652 5649 5645 5637 5632 5625 5619 5614 5610 5604 5599 5593 5588 5591 5584 5568 5560 5555 5549 5539 5527 5515 5503 5493 5476 5465 5456 5438 5409 5401 5395 5381